EN

Hourly Weather Tovsten'ke

Today, 10 May, Monday

Time Temperature Precipitation Wind Pressure Humidity
00:00 +8°C° 0 mm 3 mps 742 mmHg 66%
01:00 +7°C° 0 mm 3 mps 741 mmHg 66%
02:00 +7°C° 0 mm 3 mps 741 mmHg 67%
03:00 +7°C° 0 mm 3 mps 741 mmHg 68%
04:00 +5°C° 0 mm 3 mps 741 mmHg 69%
05:00 +5°C° 0 mm 3 mps 741 mmHg 70%
06:00 +7°C° 0 mm 4 mps 741 mmHg 67%
07:00 +9°C° 0 mm 5 mps 741 mmHg 63%
08:00 +12°C° 0 mm 5 mps 742 mmHg 59%
09:00 +13°C° 0 mm 6 mps 742 mmHg 55%
10:00 +15°C° 0 mm 6 mps 741 mmHg 52%
11:00 +16°C° 0 mm 6 mps 741 mmHg 49%
12:00 +17°C° 0 mm 6 mps 741 mmHg 48%
13:00 +19°C° 0 mm 6 mps 741 mmHg 47%
14:00 +19°C° 0 mm 6 mps 741 mmHg 47%
15:00 +19°C° 0 mm 6 mps 740 mmHg 50%
16:00 +19°C° 0 mm 6 mps 740 mmHg 53%
17:00 +19°C° 0 mm 5 mps 740 mmHg 55%
18:00 +16°C° 0 mm 5 mps 740 mmHg 62%
19:00 +14°C° 0 mm 4 mps 740 mmHg 68%
20:00 +12°C° 0 mm 3 mps 740 mmHg 74%
21:00 +11°C° 0 mm 3 mps 740 mmHg 75%
22:00 +11°C° 0 mm 3 mps 740 mmHg 75%
23:00 +10°C° 0 mm 4 mps 740 mmHg 75%

Tomorrow, 11 May, Tuesday

Time Temperature Precipitation Wind Pressure Humidity
00:00 +8°C° 0 mm 4 mps 740 mmHg 75%
01:00 +8°C° 0 mm 4 mps 740 mmHg 76%
02:00 +8°C° 0 mm 4 mps 740 mmHg 76%
03:00 +7°C° 0 mm 4 mps 740 mmHg 76%
04:00 +7°C° 0 mm 4 mps 740 mmHg 77%
05:00 +6°C° 0 mm 4 mps 740 mmHg 77%
06:00 +8°C° 0 mm 4 mps 740 mmHg 72%
07:00 +9°C° 0 mm 5 mps 740 mmHg 66%
08:00 +12°C° 0 mm 5 mps 740 mmHg 61%
09:00 +14°C° 0 mm 5 mps 740 mmHg 57%
10:00 +15°C° 0 mm 5 mps 740 mmHg 53%
11:00 +16°C° 0 mm 5 mps 739 mmHg 49%
12:00 +17°C° 0 mm 5 mps 739 mmHg 45%
13:00 +19°C° 0 mm 5 mps 739 mmHg 42%
14:00 +19°C° 0 mm 5 mps 738 mmHg 38%
15:00 +19°C° 0 mm 5 mps 738 mmHg 42%
16:00 +19°C° 0 mm 4 mps 738 mmHg 46%
17:00 +19°C° 0 mm 4 mps 737 mmHg 50%
18:00 +17°C° 0 mm 4 mps 737 mmHg 58%
19:00 +16°C° 0 mm 3 mps 737 mmHg 67%
20:00 +13°C° 0 mm 3 mps 737 mmHg 76%
21:00 +13°C° 0 mm 3 mps 737 mmHg 80%
22:00 +12°C° 0 mm 3 mps 737 mmHg 84%
23:00 +11°C° 0 mm 3 mps 736 mmHg 89%

Day after tomorrow, 12 May, Wednesday

Time Temperature Precipitation Wind Pressure Humidity
00:00 +11°C° 0 mm 3 mps 736 mmHg 90%
01:00 +11°C° 0 mm 3 mps 736 mmHg 92%
02:00 +11°C° 0 mm 3 mps 735 mmHg 93%
03:00 +10°C° 0 mm 3 mps 735 mmHg 95%
04:00 +10°C° 0 mm 4 mps 735 mmHg 96%
05:00 +10°C° 0 mm 4 mps 735 mmHg 98%
06:00 +9°C° 0 mm 5 mps 735 mmHg 92%
07:00 +9°C° 0 mm 6 mps 735 mmHg 86%
08:00 +10°C° 0 mm 6 mps 735 mmHg 80%
09:00 +11°C° 0 mm 6 mps 735 mmHg 75%
10:00 +11°C° 0 mm 6 mps 735 mmHg 69%
11:00 +13°C° 0 mm 6 mps 735 mmHg 64%
12:00 +14°C° 0 mm 6 mps 735 mmHg 61%
13:00 +14°C° 0 mm 6 mps 734 mmHg 58%
14:00 +15°C° 0 mm 6 mps 734 mmHg 55%
15:00 +15°C° 0 mm 6 mps 734 mmHg 56%
16:00 +14°C° 0 mm 6 mps 733 mmHg 57%
17:00 +14°C° 0 mm 6 mps 733 mmHg 58%
18:00 +13°C° 0 mm 5 mps 733 mmHg 64%
19:00 +11°C° 0 mm 4 mps 733 mmHg 70%
20:00 +9°C° 0 mm 3 mps 732 mmHg 76%
21:00 +8°C° 0 mm 4 mps 732 mmHg 79%
22:00 +7°C° 0 mm 4 mps 732 mmHg 81%
23:00 +7°C° 0 mm 5 mps 732 mmHg 83%

13 May, Thursday

Time Temperature Precipitation Wind Pressure Humidity
00:00 +7°C° 0 mm 5 mps 731 mmHg 81%
01:00 +7°C° 0 mm 5 mps 731 mmHg 80%
02:00 +7°C° 0 mm 5 mps 730 mmHg 78%
03:00 +7°C° 0 mm 5 mps 730 mmHg 78%
04:00 +7°C° 0 mm 6 mps 730 mmHg 77%
05:00 +8°C° 0 mm 6 mps 729 mmHg 77%
06:00 +8°C° 0.1 mm 6 mps 729 mmHg 77%
07:00 +9°C° 0.1 mm 7 mps 729 mmHg 78%
08:00 +9°C° 0.1 mm 7 mps 729 mmHg 78%
09:00 +11°C° 0 mm 7 mps 729 mmHg 75%
10:00 +12°C° 0 mm 8 mps 729 mmHg 71%
11:00 +15°C° 0 mm 8 mps 729 mmHg 68%
12:00 +15°C° 0 mm 8 mps 729 mmHg 69%
13:00 +15°C° 0 mm 8 mps 729 mmHg 70%
14:00 +15°C° 0 mm 9 mps 729 mmHg 71%
15:00 +13°C° 0 mm 8 mps 729 mmHg 75%
16:00 +12°C° 0 mm 7 mps 729 mmHg 79%
17:00 +11°C° 0 mm 7 mps 729 mmHg 83%
18:00 +11°C° 0 mm 6 mps 729 mmHg 85%
19:00 +10°C° 0 mm 5 mps 729 mmHg 87%
20:00 +10°C° 0 mm 5 mps 729 mmHg 90%
21:00 +11°C° 0 mm 4 mps 729 mmHg 91%
22:00 +11°C° 0 mm 4 mps 729 mmHg 92%
23:00 +11°C° 0 mm 4 mps 729 mmHg 93%

14 May, Friday

Time Temperature Precipitation Wind Pressure Humidity
00:00 +11°C° 0 mm 3 mps 729 mmHg 94%
01:00 +11°C° 0 mm 3 mps 729 mmHg 94%
02:00 +12°C° 0 mm 2 mps 729 mmHg 95%
03:00 +10°C° 0 mm 2 mps 729 mmHg 95%
04:00 +11°C° 0 mm 1 mps 729 mmHg 96%
05:00 +11°C° 0 mm 1 mps 729 mmHg 96%
06:00 +12°C° 0 mm 1 mps 729 mmHg 92%
07:00 +13°C° 0 mm 1 mps 729 mmHg 89%
08:00 +14°C° 0 mm 1 mps 730 mmHg 85%
09:00 +15°C° 0.1 mm 2 mps 730 mmHg 80%
10:00 +16°C° 0.1 mm 2 mps 730 mmHg 76%
11:00 +17°C° 0.1 mm 2 mps 730 mmHg 71%
12:00 +18°C° 0.3 mm 2 mps 730 mmHg 66%
13:00 +19°C° 0.3 mm 2 mps 730 mmHg 61%
14:00 +20°C° 0.3 mm 2 mps 730 mmHg 56%
15:00 +20°C° 0.7 mm 2 mps 730 mmHg 58%
16:00 +20°C° 0.7 mm 1 mps 730 mmHg 59%
17:00 +20°C° 0.7 mm 1 mps 730 mmHg 60%
18:00 +19°C° 0.6 mm 1 mps 730 mmHg 68%
19:00 +16°C° 0.6 mm 2 mps 730 mmHg 75%
20:00 +14°C° 0.6 mm 2 mps 730 mmHg 82%
21:00 +14°C° 0.1 mm 2 mps 731 mmHg 84%
22:00 +13°C° 0.1 mm 2 mps 731 mmHg 86%
23:00 +12°C° 0.1 mm 2 mps 731 mmHg 87%

15 May, Saturday

Time Temperature Precipitation Wind Pressure Humidity
00:00 +12°C° 0 mm 2 mps 731 mmHg 88%
01:00 +10°C° 0 mm 2 mps 731 mmHg 88%
02:00 +10°C° 0 mm 2 mps 731 mmHg 88%
03:00 +10°C° 0 mm 2 mps 732 mmHg 88%
04:00 +9°C° 0 mm 2 mps 732 mmHg 88%
05:00 +9°C° 0 mm 2 mps 732 mmHg 88%
06:00 +10°C° 0 mm 2 mps 732 mmHg 83%
07:00 +13°C° 0 mm 1 mps 732 mmHg 79%
08:00 +14°C° 0 mm 1 mps 733 mmHg 75%
09:00 +15°C° 0.1 mm 2 mps 733 mmHg 70%
10:00 +16°C° 0.1 mm 3 mps 733 mmHg 66%
11:00 +18°C° 0.1 mm 3 mps 733 mmHg 62%
12:00 +17°C° 0.2 mm 4 mps 733 mmHg 62%
13:00 +17°C° 0.2 mm 4 mps 733 mmHg 62%
14:00 +16°C° 0.2 mm 5 mps 733 mmHg 62%
15:00 +17°C° 0 mm 4 mps 733 mmHg 63%
16:00 +17°C° 0 mm 4 mps 733 mmHg 65%
17:00 +17°C° 0 mm 3 mps 733 mmHg 66%
18:00 +14°C° 0 mm 3 mps 733 mmHg 73%
19:00 +14°C° 0 mm 2 mps 733 mmHg 80%
20:00 +13°C° 0 mm 2 mps 733 mmHg 87%
21:00 +12°C° 0 mm 2 mps 732 mmHg 88%
22:00 +12°C° 0 mm 1 mps 732 mmHg 89%
23:00 +11°C° 0 mm 1 mps 732 mmHg 90%
Show more

We Need Your Consent

Meteoprog and our Service Providers may store and access personal data such as cookies, device identifiers or other similar technologies on your device and process such data to personalise content and ads, as well as provide social media features and to analyse the traffic.

  • Store and/or access information on your device

    Cookies, device identifiers or other information can be stored or accessed on your device for the purposes indicated above.

  • Personalised ads and content, ad and content measurement, audience insights, and products development

    Ads and content can be personalised based on a profile. More data can be added to better personalise ads and content. Ad and content performance can be measured. Insights about the audience who saw the ads and content can be derived. Such data can be used to develop or improve user’s experience, systems and software.

By clicking ‘I Agree’ you will allow the use of indicated cookies, device identifiers, web beacons or other similar technologies. Your settings can be changed in the browser on your device.

For certain purposes, legitimate interests may be relied on, rather than consent. You can read more about this in our Privacy and Cookie Policy.